IRIDIUM 61 [P]

Last updated on June 28, 2019, 3:46 a.m. UTC

1 25263U 98018B   19178.95831645  .00976106 -13818-5  81500-3 0  9994
2 25263  86.4328   9.0374 0403642 161.4190 200.2248 15.39056079113339

Satellite is not in orbit.